Regional Weather Roundup
Issued by NWS

Home | Current Version | Previous Version | Graphics & Text | Print | Product List | Glossary On
Versions: 1 2 3 4 5 6 7 8 9 10 11 12 13 14 15 16 17 18 19 20 21 22 23 24 25 26 27 28 29 30 31 32 33 34 35 36 37 38 39 40 41 42 43 44 45 46 47 48 49 50
929
ASUS43 KTOP 241408
RWRKS

WEATHER ROUNDUP FOR KANSAS
NATIONAL WEATHER SERVICE GOODLAND KS
800 AM CST SAT FEB 24 2018

NOTE:  "FAIR" INDICATES FEW OR NO CLOUDS BELOW 12,000 FEET WITH NO
SIGNIFICANT WEATHER AND/OR OBSTRUCTIONS TO VISIBILITY.

KSZ001>006-013>018-027>032-041>047-241500-
NORTHWEST KANSAS

CITY           SKY/WX    TMP DP  RH WIND       PRES   REMARKS
GOODLAND       CLOUDY    26  24  92 SW9       29.81F
HAYS           CLOUDY    28  27  96 SE5       29.91F FOG
HILL CITY      CLOUDY    27  26  96 CALM      29.91F FOG
RUSSELL        CLOUDY    31  30  96 E8        29.89F FOG
$$

KSZ061>065-074>080-084>089-241500-
SOUTHWEST KANSAS

CITY           SKY/WX    TMP DP  RH WIND       PRES   REMARKS
DODGE CITY     CLOUDY    28  25  88 E9        29.84F
ELKHART        FOG       31  31 100 CALM      29.82F VSB<1/4
GARDEN CITY    CLOUDY    27  26  96 S7        29.84F
GREAT BEND     MIX PCPN  30  29  96 E3        29.89F FOG
LIBERAL        CLOUDY    28  27  96 E3        29.85F FOG
PRATT          CLOUDY    30  29  95 NW5       29.88F
$$

KSZ066>073-081>083-090>101-241500-
SOUTHEAST KANSAS

CITY           SKY/WX    TMP DP  RH WIND       PRES   REMARKS
CHANUTE        FOG       37  36  96 NE5       29.90F VSB 3/4
COFFEYVILLE    FOG       39  39 100 CALM      29.90F VSB 1/4
HUTCHINSON     CLOUDY    32  32 100 N5        29.87F FOG
MEDICINE LODGE   N/A     32  31  96 N10       29.85F WCI  24
NEWTON           N/A    N/A N/A N/A MISG        N/A
PARSONS        FOG       38  38 100 N3        29.91F VSB 1/2
WICHITA INTL   DRIZZLE   34  34 100 N9        29.86F FOG
WICHITA JABRA  CLOUDY    32  32 100 N8        29.86F FOG
WICHITA MCCONL CLOUDY    33  33  99 N8        29.86
WINFIELD       FOG       34  34 100 NE8       29.87F VSB 1/4
$$

KSZ007>012-019>026-033>040-048>060-102>105-241500-
NORTHEAST KANSAS

CITY           SKY/WX    TMP DP  RH WIND       PRES   REMARKS
CONCORDIA      CLOUDY    27  27 100 CALM      29.95R FOG
EMPORIA        FOG       32  31  96 NW5       29.92F VSB 1/2
LAWRENCE       FOG       35  35 100 SE5       29.95R VSB 1
MANHATTAN      FOG       33  32  96 CALM      29.96R VSB 1
MARYSVILLE     CLOUDY    30  30 100 E5        29.95R FOG
OLATHE IND     CLOUDY    35  35 100 E7        29.92S FOG
OLATHE EXE     CLOUDY    34  34 100 E10       29.92R FOG     WCI  26
SALINA         FOG       33  32  96 NE5       29.94F VSB 1
TOPEKA BILLARD CLOUDY    35  34  96 E6        29.95R FOG
TOPEKA FORBES  FOG       35  34  96 E8        29.93S VSB 1
$$




USA.gov is the U.S. government's official web portal to all federal, state and local government web resources and services.